Back to catalog

FREGAT R/B

LostMEO
NORAD 41176·ROCKET BODY·🇷🇺 Russia

Launched Dec 17, 2015 from Guiana Space Centre

Loading…

Next Passes (next 24 hours)

TLE

StaleSource: Space-Track

Epoch: Aug 5, 2026, 02:29 UTC

1 41176U 15079C   26217.10381632 -.00000004  00000-0  00000-0 0  9998
2 41176  55.7847 103.9466 0013127 257.8780 102.0428  1.67560796 65079

Track FREGAT R/B in real time with AllMySat

Download on the App Store